[[{"header":{"parameterUnit":"m.s-1","parameterCategory":1,"la1":30.2991,"la2":30.254,"lo1":-89.0895,"lo2":-89.0444,"dy":0.0017,"dx":0.0017,"nx":28,"ny":28,"refTime":"2024-10-06T09:00:00:Z","depth":0,"parameterNumber":2,"parameterNumberName":"U-component_of_WINDS"},"data":[0,0,0,0,0,0,0,0,0,0,0,0,0,0,0,0,0,0,0,0,0,0,0,0,0,0,0,0,0,0,0,0,0,0,0,0,0,0,0,0,0,0,0,0,0,0,0,0,0,0,0,0,0,0,0,0,0,0,0.1732,0.1732,0,0.1718,0.1718,0.1717,0.1748,0.1749,0.175,0.175,0.1732,0.1731,0.173,0,0,0,0,0,0,0,0,0,0,0,0,0,0.1782,0.1781,0.1732,0.1732,0.1731,0.1718,0.1718,0.1717,0.1747,0.1749,0.175,0.1751,0.1733,0.1731,0.173,0,0,0,0,0,0,0,0,0,0,0,0,0,0.1763,0.178,0.1732,0.1745,0.1746,0.1718,0.1718,0.1717,0.1747,0.1749,0.175,0.1751,0.1733,0.1731,0.1729,0.1687,0,0,0.1723,0.1722,0,0,0,0,0,0,0,0,0.1764,0.1761,0.1743,0.1744,0.1745,0.1736,0.1729,0.1707,0.1747,0.1747,0.175,0.1752,0.1732,0.173,0.1724,0.1686,0.1685,0.1723,0.1721,0.1721,0.172,0,0,0,0,0,0,0,0.1765,0.1762,0.1726,0.1743,0.1744,0.175,0.1749,0.1725,0.1731,0.1747,0.1749,0.1747,0.1733,0.1726,0.1724,0.1685,0.1723,0.1721,0.172,0.1719,0.161,0.1609,0,0,0,0,0,0,0.1765,0.1763,0.1727,0.1726,0.1758,0.1748,0.1747,0.1737,0.1732,0.1732,0.1746,0.1748,0.1729,0.1726,0.1724,0.1672,0.1721,0.1719,0.1717,0.1612,0.161,0.1608,0,0,0,0,0,0,0.1766,0.1762,0.1727,0.1745,0.1741,0.1746,0.1735,0.1736,0.173,0.1731,0.1732,0.1738,0.173,0.1726,0.1696,0.1672,0.1718,0.1716,0.1614,0.1611,0.1609,0.157,0,0,0,0,0,0,0.1768,0.1762,0.1746,0.1744,0.174,0.17,0.1733,0.1735,0.1726,0.173,0.1724,0.1724,0.1731,0.1699,0.1694,0.167,0.1714,0.1616,0.1613,0.161,0.1573,0.1567,0.1561,0,0,0,0,0,0.1769,0.1735,0.1746,0.1741,0.1721,0.1699,0.1696,0.1706,0.1724,0.1708,0.1709,0.1724,0.1676,0.1695,0.169,0.1665,0.1617,0.1614,0.161,0.1576,0.1568,0.1561,0,0,0,0,0,0,0.1733,0.1735,0.1747,0.1711,0.1705,0.1704,0.1684,0.1697,0.1684,0.1688,0.17,0.1698,0.1664,0.1662,0.1684,0.1624,0.165,0.1645,0.1626,0.1618,0.1612,0.1612,0.1712,0,0,0,0,0,0.1722,0.1705,0.1707,0.1676,0.1672,0.1679,0.167,0.1678,0.1671,0.1668,0.1667,0.1659,0.1642,0.163,0.1615,0.1574,0.1572,0.1555,0.1548,0.1543,0.1538,0.1515,0.1507,0.1596,0.1596,0.1596,0,0,0.1696,0.1696,0.1684,0.1669,0.1664,0.1645,0.1676,0.1655,0.164,0.1665,0.1635,0.1634,0.1626,0.159,0.1574,0.1587,0.1513,0.1538,0.1534,0.1532,0.151,0.1502,0.1494,0.1594,0.1594,0.1594,0,0,0.1641,0.1639,0.1612,0.1608,0.1602,0.1607,0.16,0.1598,0.1598,0.157,0.1587,0.157,0.1541,0.1534,0.1527,0.147,0.1482,0.1464,0.143,0.1408,0.1401,0.1394,0.1372,0.1364,0.146,0.146,0.146,0,0.1609,0.1583,0.1596,0.1574,0.1566,0.1589,0.1561,0.1556,0.1545,0.1538,0.1554,0.1518,0.1514,0.1476,0.1462,0.1456,0.1448,0.1464,0.1401,0.1395,0.1389,0.1368,0.136,0.1457,0.1458,0.1458,0.1458,0,0.1544,0.1525,0.1504,0.1494,0.1484,0.1459,0.1468,0.1456,0.1466,0.1469,0.1439,0.1435,0.1419,0.1411,0.142,0.1374,0.1382,0.1399,0.1425,0.1378,0.1358,0.135,0.1454,0.1455,0.1456,0.1456,0,0,0.1463,0.1462,0.1453,0.1449,0.1444,0.1429,0.1406,0.1391,0.138,0.1372,0.1351,0.1326,0.1342,0.1334,0.1342,0.1323,0.1276,0.1342,0.1342,0.1328,0.1223,0.1209,0.1199,0.1285,0.1284,0.1283,0.1223,0,0.1406,0.1365,0.1377,0.1336,0.1318,0.134,0.1319,0.1313,0.1316,0.13,0.1303,0.1284,0.1307,0.1302,0.1284,0.1285,0.1254,0.129,0.1264,0.1263,0.1263,0.1189,0.1174,0.1118,0.1216,0.1214,0.1214,0,0.1334,0.1324,0.1281,0.1279,0.1272,0.1253,0.1241,0.1226,0.122,0.1223,0.1215,0.1227,0.1202,0.1231,0.1195,0.1219,0.121,0.1209,0.1207,0.1202,0.1233,0.1181,0.11,0.1091,0.1202,0.1203,0.1204,0,0.1276,0.1252,0.1223,0.1219,0.1217,0.1203,0.1201,0.1197,0.1188,0.1177,0.117,0.1156,0.1148,0.1137,0.1144,0.1165,0.1107,0.1137,0.1107,0.1107,0.1092,0.1092,0.1006,0.109,0.109,0.109,0.1091,0,0.121,0.1182,0.1197,0.1179,0.1148,0.1163,0.1132,0.1133,0.1129,0.111,0.1129,0.1111,0.1124,0.1107,0.1113,0.1082,0.1079,0.1079,0.1081,0.1076,0.1076,0.1068,0.1071,0.1088,0.1089,0.1089,0.1089,0,0.1139,0.1148,0.1118,0.1119,0.1119,0.1096,0.1097,0.108,0.1084,0.1061,0.1056,0.1062,0.1043,0.1051,0.1031,0.1035,0.0994,0.1002,0.0996,0.0997,0.0967,0.0969,0.0871,0.0858,0.0952,0.0951,0.0951,0,0.1095,0.1074,0.1074,0.1063,0.1061,0.1044,0.1034,0.1048,0.1037,0.103,0.1013,0.0996,0.0982,0.0951,0.0953,0.0937,0.0943,0.091,0.094,0.0936,0.094,0.094,0.0937,0.0903,0.0902,0.0901,0.09,0,0.1014,0.102,0.1007,0.0995,0.0984,0.0975,0.0967,0.0957,0.0971,0.0958,0.0939,0.0929,0.0909,0.0891,0.0877,0.0874,0.0888,0.0891,0.0883,0.0876,0.0873,0.0872,0.0977,0.0892,0.0893,0.0894,0.0894,0.0894,0.0954,0.0936,0.0933,0.0917,0.0914,0.0906,0.089,0.0893,0.0878,0.0863,0.0873,0.085,0.0845,0.0828,0.0824,0.0805,0.0818,0.0807,0.0804,0.08,0.0795,0.0878,0.0803,0.0804,0.0804,0.0804,0.0804,0,0.0873,0.0872,0.0858,0.0847,0.0835,0.0852,0.0845,0.0832,0.0813,0.0807,0.0795,0.0773,0.0756,0.0757,0.0741,0.0726,0.0732,0.0721,0.0721,0.072,0.0786,0.0793,0.0717,0.0717,0.0717,0.0717,0.0717,0.0717,0.0829,0.0799,0.0805,0.0774,0.0773,0.0752,0.0746,0.0739,0.0735,0.071,0.0697,0.0699,0.0695,0.068,0.0664,0.0665,0.0657,0.0643,0.0646,0.0707,0.0715,0.0724,0.073,0.0642,0.0642,0.0582,0.0581,0.0581]},{"header":{"parameterUnit":"m.s-1","parameterCategory":1,"la1":30.2991,"la2":30.254,"lo1":-89.0895,"lo2":-89.0444,"dy":0.0017,"dx":0.0017,"nx":28,"ny":28,"refTime":"2024-10-06T09:00:00:Z","depth":0,"parameterNumber":3,"parameterNumberName":"V-component_of_WINDS"},"data":[0,0,0,0,0,0,0,0,0,0,0,0,0,0,0,0,0,0,0,0,0,0,0,0,0,0,0,0,0,0,0,0,0,0,0,0,0,0,0,0,0,0,0,0,0,0,0,0,0,0,0,0,0,0,0,0,0,0,-2.2205,-2.2205,0,-2.2241,-2.2241,-2.2242,-2.2216,-2.2215,-2.2214,-2.2213,-2.2248,-2.225,-2.2252,0,0,0,0,0,0,0,0,0,0,0,0,0,-2.2113,-2.2115,-2.2205,-2.2206,-2.2206,-2.2241,-2.2241,-2.2242,-2.2216,-2.2215,-2.2214,-2.2212,-2.2247,-2.2249,-2.2252,0,0,0,0,0,0,0,0,0,0,0,0,0,-2.2152,-2.2116,-2.2205,-2.2198,-2.2197,-2.2241,-2.2241,-2.2242,-2.2217,-2.2215,-2.2213,-2.2212,-2.2246,-2.2249,-2.2252,-2.2304,0,0,-2.2261,-2.2262,0,0,0,0,0,0,0,0,-2.2149,-2.2155,-2.2198,-2.2198,-2.2198,-2.2222,-2.2222,-2.2263,-2.2217,-2.2209,-2.2213,-2.2211,-2.2241,-2.2244,-2.2254,-2.2306,-2.2307,-2.2261,-2.2263,-2.2264,-2.2265,0,0,0,0,0,0,0,-2.2147,-2.2153,-2.2219,-2.2199,-2.2199,-2.2192,-2.2196,-2.2229,-2.2234,-2.221,-2.2208,-2.2213,-2.224,-2.2251,-2.2255,-2.2308,-2.2261,-2.2264,-2.2266,-2.2267,-2.2405,-2.2406,0,0,0,0,0,0,-2.2145,-2.2151,-2.2218,-2.222,-2.2169,-2.2195,-2.2199,-2.2216,-2.2233,-2.2235,-2.2214,-2.2212,-2.2247,-2.2251,-2.2256,-2.2319,-2.2264,-2.2267,-2.2269,-2.2403,-2.2405,-2.2407,0,0,0,0,0,0,-2.2143,-2.2151,-2.2217,-2.2185,-2.2193,-2.2198,-2.2218,-2.2218,-2.2229,-2.2237,-2.2237,-2.2225,-2.2246,-2.2252,-2.2293,-2.232,-2.2269,-2.2271,-2.2401,-2.2403,-2.2406,-2.2444,0,0,0,0,0,0,-2.2141,-2.2151,-2.2171,-2.2186,-2.2195,-2.2253,-2.222,-2.222,-2.2235,-2.2231,-2.2247,-2.2248,-2.2245,-2.2288,-2.2296,-2.2323,-2.2274,-2.2398,-2.2402,-2.2405,-2.2441,-2.2448,-2.2454,0,0,0,0,0,-2.2137,-2.218,-2.2172,-2.218,-2.222,-2.2255,-2.226,-2.2256,-2.2237,-2.2257,-2.2262,-2.2248,-2.2315,-2.2293,-2.2301,-2.2329,-2.2396,-2.2401,-2.2405,-2.2438,-2.2447,-2.2454,0,0,0,0,0,0,-2.2167,-2.2181,-2.2173,-2.2222,-2.2237,-2.225,-2.2276,-2.2266,-2.2287,-2.2283,-2.2277,-2.2281,-2.2324,-2.233,-2.2305,-2.2381,-2.2353,-2.2359,-2.2375,-2.2384,-2.239,-2.2388,-2.2276,0,0,0,0,0,-2.2179,-2.2206,-2.2217,-2.2259,-2.2267,-2.227,-2.2285,-2.2281,-2.2297,-2.2303,-2.2311,-2.2326,-2.2351,-2.2368,-2.2391,-2.2441,-2.2445,-2.2465,-2.2472,-2.2477,-2.2483,-2.2511,-2.252,-2.2421,-2.2421,-2.2421,0,0,-2.2204,-2.2215,-2.2233,-2.2265,-2.2277,-2.2305,-2.2276,-2.2307,-2.2328,-2.2308,-2.2347,-2.2354,-2.237,-2.2417,-2.2437,-2.2423,-2.2511,-2.2483,-2.2487,-2.2489,-2.2516,-2.2525,-2.2534,-2.2424,-2.2423,-2.2423,0,0,-2.2264,-2.2276,-2.2312,-2.2325,-2.2343,-2.2345,-2.2354,-2.2369,-2.2373,-2.2412,-2.2398,-2.2422,-2.2465,-2.2478,-2.249,-2.2556,-2.2544,-2.2564,-2.26,-2.2627,-2.2635,-2.2642,-2.2666,-2.2675,-2.2569,-2.2569,-2.2569,0,-2.2293,-2.2336,-2.2332,-2.2364,-2.2379,-2.2363,-2.24,-2.2412,-2.2436,-2.2447,-2.2431,-2.2485,-2.2495,-2.2545,-2.2561,-2.2571,-2.2581,-2.2562,-2.2634,-2.2641,-2.2648,-2.2671,-2.268,-2.2572,-2.2571,-2.2571,-2.2571,0,-2.237,-2.24,-2.2427,-2.2453,-2.247,-2.2504,-2.2506,-2.2524,-2.2518,-2.2522,-2.2563,-2.2574,-2.26,-2.2611,-2.2606,-2.266,-2.2651,-2.2635,-2.2607,-2.266,-2.2681,-2.269,-2.2575,-2.2574,-2.2574,-2.2573,0,0,-2.2449,-2.2473,-2.2483,-2.2495,-2.2515,-2.2537,-2.2571,-2.2597,-2.2613,-2.2631,-2.2659,-2.2696,-2.2681,-2.2695,-2.2691,-2.2715,-2.2768,-2.2696,-2.2696,-2.2709,-2.2829,-2.2841,-2.2852,-2.276,-2.2761,-2.2763,-2.2828,0,-2.2511,-2.2571,-2.2569,-2.2624,-2.2652,-2.2637,-2.2667,-2.2682,-2.2686,-2.271,-2.2714,-2.2741,-2.272,-2.2728,-2.2751,-2.2756,-2.2792,-2.2752,-2.2786,-2.2787,-2.2782,-2.2863,-2.2876,-2.2936,-2.2836,-2.2837,-2.2838,0,-2.2591,-2.2613,-2.2672,-2.2688,-2.2699,-2.2726,-2.275,-2.2773,-2.279,-2.2791,-2.2807,-2.28,-2.2834,-2.2805,-2.2851,-2.2824,-2.2838,-2.2843,-2.2845,-2.2848,-2.2816,-2.2868,-2.2956,-2.2965,-2.2852,-2.285,-2.285,0,-2.2644,-2.2688,-2.2729,-2.2739,-2.2759,-2.2778,-2.2787,-2.2802,-2.2818,-2.2839,-2.285,-2.2874,-2.2887,-2.2906,-2.2905,-2.2884,-2.2953,-2.2924,-2.2955,-2.2955,-2.297,-2.2969,-2.3061,-2.2979,-2.2979,-2.2978,-2.2978,0,-2.2713,-2.275,-2.2753,-2.2778,-2.2818,-2.2815,-2.2855,-2.2862,-2.2876,-2.2902,-2.2891,-2.2916,-2.2913,-2.2938,-2.2937,-2.2976,-2.2982,-2.2984,-2.2984,-2.2986,-2.2986,-2.2995,-2.2991,-2.2981,-2.298,-2.298,-2.2979,0,-2.2779,-2.2782,-2.2826,-2.2842,-2.2847,-2.2876,-2.2889,-2.2913,-2.2917,-2.295,-2.2957,-2.2963,-2.2992,-2.2993,-2.3025,-2.3025,-2.3073,-2.3068,-2.3068,-2.3067,-2.3098,-2.3096,-2.32,-2.3214,-2.3122,-2.3123,-2.3123,0,-2.2823,-2.2851,-2.287,-2.2887,-2.2898,-2.2926,-2.2942,-2.2941,-2.2958,-2.298,-2.3002,-2.3029,-2.3052,-2.3098,-2.3105,-2.313,-2.3125,-2.316,-2.3129,-2.313,-2.3126,-2.3125,-2.3128,-2.3166,-2.3167,-2.3168,-2.3169,0,-2.2902,-2.2902,-2.2927,-2.2953,-2.2973,-2.2993,-2.3012,-2.3026,-2.3027,-2.3047,-2.3077,-2.3094,-2.3128,-2.3156,-2.3181,-2.319,-2.318,-2.3178,-2.3187,-2.3189,-2.3189,-2.319,-2.3085,-2.3176,-2.3175,-2.3175,-2.3174,-2.3174,-2.2958,-2.2983,-2.3,-2.3029,-2.3043,-2.306,-2.3084,-2.3091,-2.3116,-2.3144,-2.3142,-2.3175,-2.3191,-2.3224,-2.3235,-2.326,-2.3248,-2.3261,-2.3264,-2.3267,-2.3271,-2.3185,-2.3265,-2.3265,-2.3264,-2.3264,-2.3264,0,-2.3036,-2.3047,-2.3073,-2.31,-2.3123,-2.3112,-2.3132,-2.3151,-2.3181,-2.3198,-2.322,-2.3255,-2.3282,-2.3291,-2.3318,-2.3337,-2.3333,-2.3344,-2.3342,-2.3345,-2.328,-2.327,-2.3347,-2.3347,-2.3347,-2.3347,-2.3347,-2.3346,-2.308,-2.3121,-2.3124,-2.3172,-2.3182,-2.3215,-2.3228,-2.3244,-2.3258,-2.3297,-2.332,-2.3326,-2.334,-2.3368,-2.3392,-2.3394,-2.3405,-2.3418,-2.3418,-2.3357,-2.3349,-2.3341,-2.3332,-2.342,-2.342,-2.3481,-2.3481,-2.3482]}]]